COSMOS 1598

导读

**COSMOS 1598卫星摘要** COSMOS 1598是独联体(CIS,继承自苏联)于1984年9月13日发射的“宇宙”系列卫星,该系列是苏联/俄罗斯历史上规模最大的卫星家族,涵盖军用侦察、科学试验等多种用途。作为冷战时期空间部署的一环,其具体任务细节未公开,推测承担技术试验或情报收集任务,反映了当时苏联在航天领域的持续活动能力。

基本信息
目录编号:
15292
目录名称:
COSMOS 1598
国际标识:
1984-100A
轨道中心:
EARTH
卫星名称:
COSMOS 1598
卫星全名:
--
卫星状态:
在轨 (已飞行15338 天)
发射日期:
1984-09-13 UTC
国别 :
俄罗斯(独联体) (CIS)
星等 :
--
该卫星已列入 空间交会检测服务 Space Conjunction Data Service (SCDS) ,当前飞行风险评估等级: 高风险
轨道信息
数据来源 国际轨道数据 AOE轨道数据
星历时间 2026-09-11T00:04:05+0800
1天前
查看轨道信息
2026-09-09T22:00:00+0800
2天前
查看轨道信息
半长轴 7366.249km 7366.249km
偏心率 0.0033006 0.0033029
轨道倾角 82.943° 82.943°
近地点辐角 149.176° 152.384°
升交点赤经 109.517° 110.319°
平近点角 270.351° 300.669°
近地点 963.798km 963.782km
远地点 1012.426km 1012.442km
周期 104.865分钟 104.865分钟
每日圈数 13.731982 13.731982
详细信息
使用方式:
暂无
2D轨道图
3D轨道图
轨道高度分析图
轨道倾角分析图
轨道综合分析图
查看轨道综合分析图
交会数据列表
事件ID 空间交会对象 最接近时刻(TCA) 交会距离 交会风险概率(CRP) 交会风险指数(CRI) 操作
CDM_260912-204501-529203-447425
2026-09-12T
20:45:41+0000
0.357 km
远距离
3.39876E-4 高风险 0.86
与全量物体交会距离演化趋势
与全量物体交会风险概率演化趋势